Starlink 35229

operational
NORAD ID: 65600 Int'l Des: 2025-207 Owner: SPXS Country: US Constellation: starlink
NOTLE

Starlink 35229について

説明を読み込み中...

リアルタイム位置

3D地球を読み込み中...

次回通過

高度履歴

Altitude vs Time

uPlot chart will show altitude changes over time

軌道要素

1 65600U 25207J 25354.58336806 -.01604526 00000-0 -69312-1 0 9999
2 65600 97.6030 60.5282 0002013 82.7141 79.3079 15.25692263 5939
Epoch: Dec 20, 2025 • Age: 9 hours

現在のステータス

高度 498.7 km
速度 7.61 km/s
衛星直下点 -14.57°S, 7.05°W
打ち上げ日 Sep 13, 2025
運用期間 0.2 years
タイプ internet

技術仕様

分類 Payload
質量 575.00 kg
乾燥質量 530.00 kg
総質量 575.00 kg
長さ 0.30 m
直径 4.10 m
スパン 29.00 m
形状 Box + pan
製造者 SPXS
バスタイプ Starlink V2MO
フェーズステータス In Orbit
所有者/国 SPXS/US

大規模コンステレーション

Loading constellations...